This is the latest recevied weather packets stored in our database for station/object KB4JAC-13. If no packets are shown the sender has not sent any weather packets the latest 10 day(s).
| Time | Temp. | Humidity | Pressure | Rain* | Wind** | Luminosity | Snow |
|---|---|---|---|---|---|---|---|
| 1788009192 | 24.44° C | 85% | 994.8 hPa | 0 mm | - | - | - |
| 1788008600 | 22.78° C | 90% | 994.7 hPa | 0 mm | - | - | - |
| 1788007991 | 22.22° C | 93% | 994.8 hPa | 0 mm | - | - | - |
| 1788007391 | 21.11° C | 96% | 994.9 hPa | 0 mm | - | - | - |
| 1788006790 | 20.56° C | 98% | 994.7 hPa | 0 mm | - | - | - |
| 1788006190 | 20.56° C | 99% | 994.7 hPa | 0 mm | - | - | - |
| 1788005589 | 20° C | 99% | 994.5 hPa | 0 mm | - | - | - |
| 1788004989 | 19.44° C | 99% | 994.6 hPa | 0 mm | - | - | - |
| 1788004388 | 19.44° C | 99% | 994.6 hPa | 0 mm | - | - | - |
| 1788003792 | 18.89° C | 99% | 994.6 hPa | 0 mm | - | - | - |
| 1788003187 | 18.89° C | 99% | 994.4 hPa | 0 mm | - | - | - |
| 1788002587 | 18.89° C | 99% | 994.2 hPa | 0 mm | - | - | - |
| 1788001987 | 18.89° C | 99% | 994 hPa | 0 mm | - | - | - |
| 1788001386 | 18.89° C | 99% | 994 hPa | 0 mm | - | - | - |
| 1788000785 | 18.89° C | 99% | 994.2 hPa | 0 mm | - | - | - |
| 1788000185 | 18.89° C | 99% | 994.1 hPa | 0 mm | - | - | - |
| 1787999584 | 18.89° C | 99% | 994 hPa | 0 mm | - | - | - |
| 1787998983 | 19.44° C | 99% | 993.9 hPa | 0 mm | - | - | - |
| 1787998383 | 19.44° C | 99% | 993.7 hPa | 0 mm | - | - | - |
| 1787997783 | 19.44° C | 99% | 993.5 hPa | 0 mm | - | - | - |
| 1787997181 | 19.44° C | 99% | 993.7 hPa | 0 mm | - | - | - |
| 1787996581 | 19.44° C | 99% | 993.7 hPa | 0 mm | - | - | - |
| 1787995981 | 19.44° C | 99% | 993.8 hPa | 0 mm | - | - | - |
| 1787995380 | 19.44° C | 99% | 993.9 hPa | 0 mm | - | - | - |
| 1787994780 | 19.44° C | 99% | 993.7 hPa | 0 mm | - | - | - |
* Rain since midnight (hover to see other rain measurements)
** Current wind speed in m/s (hover to see current wind gust speed)